Regional Weather Roundup
Issued by NWS

Home | Current Version | Previous Version | Graphics & Text | Print | Product List | Glossary On
Versions: 1 2 3 4 5 6 7 8 9 10 11 12 13 14 15 16 17 18 19 20 21 22 23 24 25 26 27 28 29 30 31 32 33 34 35 36 37 38 39 40 41 42 43 44 45 46 47 48 49 50
000
ASUS45 KSLC 260410
RWRUT

UTAH REGIONAL WEATHER ROUNDUP
NATIONAL WEATHER SERVICE SALT LAKE CITY UT
1000 PM MDT SUN SEP 25 2016

UTZ001>011-023>025-260500-

NORTHERN UTAH

CITY           SKY/WX    TMP DP  RH WIND       PRES   REMARKS
BRIGHAM CITY     N/A     54  48  79 CALM      30.43S
HILL AFB       CLEAR     56  42  58 SE5       30.44S
LOGAN          CLEAR     50  45  83 CALM      30.44S
OGDEN          CLEAR     55  44  66 S5        30.43S
PROVO AIRPORT  CLEAR     54  46  74 SE3       30.44R
SALT LAKE CITY CLEAR     57  46  66 W3        30.43R
VERNAL         CLEAR     50  42  74 W7        30.47R
WENDOVER       CLEAR     57  43  58 CALM      30.45S
HEBER CITY     CLEAR     52  41  66 CALM      30.46R
WEST JORDAN    CLEAR     54  38  55 CALM      30.45S

$$

UTZ012>022-026-027-260500-

SOUTHERN/CENTRAL UTAH

CITY           SKY/WX    TMP DP  RH WIND       PRES   REMARKS
BLANDING       CLEAR     54  28  36 NW8       30.46S
BRYCE CANYON   CLEAR     45  31  58 NE7       30.51R
CEDAR CITY     CLEAR     50  36  58 VRB3      30.41R
DELTA          CLEAR     55  45  67 N8        30.43S
MILFORD        CLEAR     57  38  48 N13       30.42R
MOAB/CYNLANDS  CLEAR     59  38  45 W3        30.36R
PRICE          CLEAR     51  40  65 NE8       30.46R
ST GEORGE      CLEAR     75  36  23 NE20G25   30.25R

$$

REGIONAL REPORTS     COLORADO/ARIZONA

CITY           SKY/WX    TMP DP  RH WIND       PRES   REMARKS
CRAIG, CO      CLEAR     40  35  83 CALM      30.51R
GRAND JUNCTION CLEAR     56  41  57 W3        30.39R
RIFLE          CLOUDY    51  42  71 SE6       30.44R
MONTROSE       CLEAR     49  37  63 S8        30.46R
CORTEZ         CLEAR     57  32  38 NE7       30.40R
PAGE, AZ       CLEAR     68  33  27 N6        30.32R
GRAND CANYON   CLEAR     56  29  35 NE8       30.42R
KINGMAN        CLEAR     69  31  24 E6        30.20R
FLAGSTAFF      CLEAR     53  31  42 NE6       30.40R

$$

REGIONAL REPORTS    NEVADA/IDAHO/WYOMING

CITY           SKY/WX    TMP DP  RH WIND       PRES   REMARKS
LAS VEGAS, NV  CLEAR     82  26  13 N9        30.15R
ELY            CLEAR     52  28  39 NE12      30.48R
ELKO           CLEAR     58  37  45 CALM      30.43R
POCATELLO, ID  CLEAR     50  39  66 S5        30.46S
BURLEY         CLEAR     50  42  74 CALM      30.43S
EVANSTON, WY   CLOUDY    49  33  54 E5        30.54S
ROCK SPRINGS   CLEAR     48  34  58 S10       30.48S

$$



USA.gov is the U.S. government's official web portal to all federal, state and local government web resources and services.